Regional Weather Roundup
Issued by NWS Cleveland, OH

Home | Current Version | Previous Version | Text Only | Print | Product List | Glossary Off
Versions: 1 2 3 4 5 6 7 8 9 10 11 12 13 14 15 16 17 18 19 20 21 22 23 24 25 26 27 28 29 30 31 32 33 34 35 36 37 38 39 40 41 42 43 44 45 46 47 48 49 50

000
ASUS41 KCLE 190500
RWRCLE
OHIO REGIONAL WEATHER ROUNDUP
NATIONAL WEATHER SERVICE WILMINGTON, OH
100 AM EDT SUN APR 19 2015

NOTE: "FAIR" INDICATES FEW OR NO CLOUDS BELOW 12,000 FEET WITH NO
SIGNIFICANT WEATHER AND/OR OBSTRUCTIONS TO VISIBILITY.

OHZ001>008-015>018-024>027-034-035-043-044-190600-
   NORTHWEST OHIO

CITY           SKY/WX    TMP DP  RH WIND       PRES   REMARKS
DEFIANCE       CLOUDY    53  34  48 E12       30.06F
FINDLAY        CLOUDY    53  38  56 E15       30.04F
TOLEDO EXPRESS MOCLDY    49  34  56 E10       30.08F
TOLEDO EXEC    MOCLDY    48  37  65 NE10      30.10F
LIMA           MOCLDY    54  38  54 E17       30.03F
$$

OHZ009>014-019>023-028>033-038-089-190600-
   NORTHEAST OHIO

CITY           SKY/WX    TMP DP  RH WIND       PRES   REMARKS
CLE-HOPKINS    MOCLDY    48  36  63 N8        30.10F
CLE-LAKEFRONT  MOCLDY    50  43  77 NE5       30.08F
CUY CO. ARPT   NOT AVBL
LORAIN-ELYRIA  MOCLDY    48  36  63 E7        30.08F
ASHTABULA      MOCLDY    51  23  33 E7        30.13F
AKRON-CANTON   CLOUDY    56  33  42 NE12      30.06F
WOOSTER        NOT AVBL
MANSFIELD      CLOUDY    54  32  43 E5        30.06F
YOUNGSTOWN     MOCLDY    53  28  38 NE10      30.09F
$$

OHZ042-051>053-060>062-070>072-077>081-190600-
  SOUTHWEST OHIO

CITY           SKY/WX    TMP DP  RH WIND       PRES   REMARKS
CINC-COVINGTON MOCLDY    66  44  45 E9        29.94F
CINC-LUNKEN    MOCLDY    61  49  64 NE6       29.95S
HAMILTON       MOCLDY    65  48  54 E9        29.96S
DAYTON         NOT AVBL
WRIGHT-PAT AFB CLOUDY    60  46  59 NE8       29.98F
DAYTON GENERAL CLOUDY    62  49  62 E9        29.97F
WILMINGTON     CLOUDY    61  47  59 E10       29.98F
$$

OHZ036-037-039>041-045>050-054>059-063>069-073>076-082>088-190600-
  CENTRAL AND SOUTHEAST OHIO

CITY           SKY/WX    TMP DP  RH WIND       PRES   REMARKS
COLUMBUS       MOCLDY    61  40  45 E12G21    30.01S
OSU AIRPORT    MOCLDY    60  39  45 NE7       30.02S
BOLTON FIELD   NOT AVBL
RICKENBACK AFB NOT AVBL
NEWARK         MOCLDY    61  41  47 CALM      30.02S
MARION         CLOUDY    53  37  54 NE9       30.04F
LANCASTER      MOCLDY    59  47  64 NE3       30.02S
ZANESVILLE     MOCLDY    59  43  55 CALM      30.03S
NEW PHILLY     CLOUDY    62  36  37 VRB5      30.05F
$$


USA.gov is the U.S. government's official web portal to all federal, state and local government web resources and services.